Regional Weather Roundup
Issued by NWS

Home | Current Version | Previous Version | Text Only | Print | Product List | Glossary On
Versions: 1 2 3 4 5 6 7 8 9 10 11 12 13 14 15 16 17 18 19 20 21 22 23 24 25 26 27 28 29 30 31 32 33 34 35 36 37 38 39 40 41 42 43 44 45 46 47 48 49 50
000
ASUS45 KABQ 080710
RWRNM
NEW MEXICO REGIONAL WEATHER ROUNDUP
NATIONAL WEATHER SERVICE ALBUQUERQUE NM
100 AM MDT WED JUL 08 2015

NOTE: "FAIR" MEANS FEW OR NO CLOUDS BELOW 12,000 FEET AGL WITH NO
       SIGNIFICANT WEATHER OR OBSTRUCTIONS TO VISION.

      THIS PRODUCT IS RELEASED AS TWO VERSIONS.  ONE VERSION NEAR
      THE TOP OF THE HOUR CONTAINING PRELIMINARY DATA FROM ALBUQUERQUE
      AND OTHER STATIONS.  A FINAL VERSION WITH ADDITIONAL DATA IS
      ISSUED ABOUT 10 MINUTES AFTER THE HOUR.

NMZ501-503-504-510>518-080800-
NORTHWEST PLATEAU/NORTHCENTRAL MOUNTAINS

CITY           SKY/WX    TMP DP  RH WIND       PRES   REMARKS
FARMINGTON     PTCLDY    63  52  67 E7        30.09S
LOS ALAMOS     CLOUDY    55  54  97 S5        30.24R
SANTA FE       LGT RAIN  56  53  90 E22       30.20F
TAOS           MOCLDY    52  41  66 CALM      30.25F
ANGEL FIRE     FAIR      47  45  95 CALM      30.31F

$$
NMZ402-403-502-505>509-080800-
WESTCENTRAL MOUNTAINS/SOUTHWEST MOUNTAINS

CITY           SKY/WX    TMP DP  RH WIND       PRES   REMARKS
GALLUP         PTCLDY    54  48  80 E3        30.18F
GRANTS         CLEAR     58  53  85 S13       30.23S
SILVER CITY      N/A     64  54  68 SE5       30.15S

$$
NMZ407-409-411-412-080800-
SOUTHERN DESERTS

CITY           SKY/WX    TMP DP  RH WIND       PRES   REMARKS
LORDSBURG      FAIR      73  54  49 S14       30.04S
DEMING         LGT RAIN  69  61  75 N6        30.07R
LAS CRUCES     PTCLDY    68  59  72 CALM      30.09F
HOLLOMAN AFB   CLEAR     64  60  86 NE5       30.07R
ALAMOGORDO     CLEAR     64  59  82 N6        30.10R
T OR C         PTCLDY    69  49  48 NW5       30.08R

$$
NMZ519>523-080800-
CENTRAL VALLEYS/CENTRAL HIGHLANDS

CITY           SKY/WX    TMP DP  RH WIND       PRES   REMARKS
ALBUQUERQUE    CLOUDY    62  53  72 SE13      30.15F
DOUBLE EAGLE   CLOUDY    58  56  95 W3        30.19F
MORIARTY ARPT  RAIN      55  52  90 N9        30.28F
CLINES CORNERS HVY RAIN  56  54  93 W18G29    30.30R FOG
BELEN          FAIR      60  56  88 N5        30.15F
SOCORRO        FAIR      67  58  72 NW20G30   30.12R

$$
NMZ524>526-539-540-080800-
SOUTHCENTRAL MOUNTAINS

CITY           SKY/WX    TMP DP  RH WIND       PRES   REMARKS
RUIDOSO        CLOUDY    57  57 100 S3        30.27F FOG

$$
NMZ527>531-080800-
NORTHEAST HIGHLANDS/NORTHEAST PLAINS

CITY           SKY/WX    TMP DP  RH WIND       PRES   REMARKS
LAS VEGAS      CLOUDY    54  53  97 SW10      30.26S
RATON          CLOUDY    57  55  93 SW5       30.17F FOG
CLAYTON        CLOUDY    59  56  89 S9        30.12F FOG

$$
NMZ532>537-080800-
EASTCENTRAL PLAINS

CITY           SKY/WX    TMP DP  RH WIND       PRES   REMARKS
TUCUMCARI      CLOUDY    64  60  87 W7        30.10R FOG
CANNON AFB     PTCLDY    60  60 100 SE3       30.09F FOG
CLOVIS AIRPORT MOCLDY    59  57  94 SE6         N/A

$$
NMZ028-029-538-080800-
SOUTHEAST PLAINS

CITY           SKY/WX    TMP DP  RH WIND       PRES   REMARKS
ROSWELL        PTCLDY    65  59  81 SW3       30.08F
ARTESIA        CLEAR     66  64  94 CALM      30.08S
CARLSBAD       PTCLDY    69  64  84 S3        30.06R
HOBBS          PTCLDY    64  64 100 NE3       30.08S


$$


USA.gov is the U.S. government's official web portal to all federal, state and local government web resources and services.